Time,TemperatureF,DewpointF,PressureIn,WindDirection,WindDirectionDegrees,WindSpeedMPH,WindSpeedGustMPH,Humidity,HourlyPrecipIn,Conditions,Clouds,dailyrainin,SoftwareType,DateUTC
2013-07-17 00:00:00,75.9,44.7,30.16,NNW,338,0.0,3.0,33,0.00,,,0.00,WeatherCatV1.02B3,2013-07-17 04:00:00,
2013-07-17 00:05:00,75.8,44.6,30.17,NNW,338,1.0,4.0,33,0.00,,,0.00,WeatherCatV1.02B3,2013-07-17 04:05:00,
2013-07-17 00:10:00,75.8,44.6,30.17,NNW,338,1.0,4.0,33,0.00,,,0.00,WeatherCatV1.02B3,2013-07-17 04:10:00,
2013-07-17 00:15:00,75.8,44.6,30.17,NNW,338,1.0,4.0,33,0.00,,,0.00,WeatherCatV1.02B3,2013-07-17 04:15:00,
2013-07-17 00:20:00,75.8,44.6,30.17,NNW,338,1.0,4.0,33,0.00,,,0.00,WeatherCatV1.02B3,2013-07-17 04:20:00,
2013-07-17 00:25:00,75.8,44.6,30.17,NNW,338,1.0,4.0,33,0.00,,,0.00,WeatherCatV1.02B3,2013-07-17 04:25:00,
2013-07-17 00:30:00,75.8,44.6,30.17,NNW,338,1.0,4.0,33,0.00,,,0.00,WeatherCatV1.02B3,2013-07-17 04:30:00,
2013-07-17 00:35:00,75.6,44.5,30.17,NNW,338,0.0,0.0,33,0.00,,,0.00,WeatherCatV1.02B3,2013-07-17 04:35:00,
2013-07-17 00:40:00,75.6,44.5,30.17,NNW,338,0.0,0.0,33,0.00,,,0.00,WeatherCatV1.02B3,2013-07-17 04:40:00,
2013-07-17 00:45:00,75.6,44.5,30.17,NNW,338,0.0,0.0,33,0.00,,,0.00,WeatherCatV1.02B3,2013-07-17 04:45:00,
2013-07-17 00:50:00,75.6,44.5,30.17,NNW,338,0.0,0.0,33,0.00,,,0.00,WeatherCatV1.02B3,2013-07-17 04:50:00,
2013-07-17 00:55:00,75.6,44.5,30.17,NNW,338,0.0,0.0,33,0.00,,,0.00,WeatherCatV1.02B3,2013-07-17 04:55:00,
2013-07-17 01:00:00,75.4,44.3,30.16,NNW,338,0.0,0.0,33,0.00,,,0.00,WeatherCatV1.02B3,2013-07-17 05:00:00,
2013-07-17 01:05:00,75.4,44.3,30.16,NNW,338,0.0,0.0,33,0.00,,,0.00,WeatherCatV1.02B3,2013-07-17 05:05:00,
2013-07-17 01:10:00,75.4,44.3,30.16,NNW,338,0.0,0.0,33,0.00,,,0.00,WeatherCatV1.02B3,2013-07-17 05:10:00,
2013-07-17 01:15:00,75.4,44.3,30.16,NNW,338,0.0,0.0,33,0.00,,,0.00,WeatherCatV1.02B3,2013-07-17 05:15:00,
2013-07-17 01:20:00,75.4,44.3,30.16,NNW,338,0.0,0.0,33,0.00,,,0.00,WeatherCatV1.02B3,2013-07-17 05:20:00,
2013-07-17 01:25:00,75.4,44.3,30.16,NNW,338,0.0,0.0,33,0.00,,,0.00,WeatherCatV1.02B3,2013-07-17 05:25:00,
2013-07-17 01:30:00,75.5,44.4,30.16,NNW,338,0.0,0.0,33,0.00,,,0.00,WeatherCatV1.02B3,2013-07-17 05:30:00,
2013-07-17 01:35:00,75.5,44.4,30.16,NNW,338,0.0,0.0,33,0.00,,,0.00,WeatherCatV1.02B3,2013-07-17 05:35:00,
2013-07-17 01:40:00,75.5,44.4,30.16,NNW,338,0.0,0.0,33,0.00,,,0.00,WeatherCatV1.02B3,2013-07-17 05:40:00,
2013-07-17 01:45:00,75.5,44.4,30.16,NNW,338,0.0,0.0,33,0.00,,,0.00,WeatherCatV1.02B3,2013-07-17 05:45:00,
2013-07-17 01:50:00,75.5,44.4,30.16,NNW,338,0.0,0.0,33,0.00,,,0.00,WeatherCatV1.02B3,2013-07-17 05:50:00,
2013-07-17 01:55:00,75.5,44.4,30.16,NNW,338,0.0,0.0,33,0.00,,,0.00,WeatherCatV1.02B3,2013-07-17 05:55:00,
2013-07-17 02:00:00,75.4,44.3,30.15,NNW,338,0.0,0.0,33,0.00,,,0.00,WeatherCatV1.02B3,2013-07-17 06:00:00,
2013-07-17 02:05:00,75.4,44.3,30.15,NNW,338,0.0,0.0,33,0.00,,,0.00,WeatherCatV1.02B3,2013-07-17 06:05:00,
2013-07-17 02:10:00,75.4,44.3,30.15,NNW,338,0.0,0.0,33,0.00,,,0.00,WeatherCatV1.02B3,2013-07-17 06:10:00,
2013-07-17 02:15:00,75.4,44.3,30.15,NNW,338,0.0,0.0,33,0.00,,,0.00,WeatherCatV1.02B3,2013-07-17 06:15:00,
2013-07-17 02:20:00,75.4,44.3,30.15,NNW,338,0.0,0.0,33,0.00,,,0.00,WeatherCatV1.02B3,2013-07-17 06:20:00,
2013-07-17 02:25:00,75.4,44.3,30.15,NNW,338,0.0,0.0,33,0.00,,,0.00,WeatherCatV1.02B3,2013-07-17 06:25:00,
2013-07-17 02:30:00,75.4,44.3,30.14,NNW,338,0.0,0.0,33,0.00,,,0.00,WeatherCatV1.02B3,2013-07-17 06:30:00,
2013-07-17 02:35:00,75.4,44.3,30.14,NNW,338,0.0,0.0,33,0.00,,,0.00,WeatherCatV1.02B3,2013-07-17 06:35:00,
2013-07-17 02:40:00,75.4,44.3,30.14,NNW,338,0.0,0.0,33,0.00,,,0.00,WeatherCatV1.02B3,2013-07-17 06:40:00,
2013-07-17 02:45:00,75.4,44.3,30.14,NNW,338,0.0,0.0,33,0.00,,,0.00,WeatherCatV1.02B3,2013-07-17 06:45:00,
2013-07-17 02:50:00,75.4,44.3,30.14,NNW,338,0.0,0.0,33,0.00,,,0.00,WeatherCatV1.02B3,2013-07-17 06:50:00,
2013-07-17 02:55:00,75.4,44.3,30.14,NNW,338,0.0,0.0,33,0.00,,,0.00,WeatherCatV1.02B3,2013-07-17 06:55:00,
2013-07-17 03:00:00,75.3,44.2,30.14,NNW,338,0.0,0.0,33,0.00,,,0.00,WeatherCatV1.02B3,2013-07-17 07:00:00,
2013-07-17 03:05:00,75.3,44.2,30.14,NNW,338,0.0,0.0,33,0.00,,,0.00,WeatherCatV1.02B3,2013-07-17 07:05:00,
2013-07-17 03:10:00,75.3,44.2,30.14,NNW,338,0.0,0.0,33,0.00,,,0.00,WeatherCatV1.02B3,2013-07-17 07:10:00,
2013-07-17 03:15:00,75.3,44.2,30.14,NNW,338,0.0,0.0,33,0.00,,,0.00,WeatherCatV1.02B3,2013-07-17 07:15:00,
2013-07-17 03:20:00,75.3,44.2,30.14,NNW,338,0.0,0.0,33,0.00,,,0.00,WeatherCatV1.02B3,2013-07-17 07:20:00,
2013-07-17 03:25:00,75.3,44.2,30.14,NNW,338,0.0,0.0,33,0.00,,,0.00,WeatherCatV1.02B3,2013-07-17 07:25:00,
2013-07-17 03:30:00,75.2,44.1,30.13,NNW,338,0.0,0.0,33,0.00,,,0.00,WeatherCatV1.02B3,2013-07-17 07:30:00,
2013-07-17 03:35:00,75.2,44.1,30.13,NNW,338,0.0,0.0,33,0.00,,,0.00,WeatherCatV1.02B3,2013-07-17 07:35:00,
2013-07-17 03:40:00,75.2,44.1,30.13,NNW,338,0.0,0.0,33,0.00,,,0.00,WeatherCatV1.02B3,2013-07-17 07:40:00,
2013-07-17 03:45:00,75.2,44.1,30.13,NNW,338,0.0,0.0,33,0.00,,,0.00,WeatherCatV1.02B3,2013-07-17 07:45:00,
2013-07-17 03:50:00,75.2,44.1,30.13,NNW,338,0.0,0.0,33,0.00,,,0.00,WeatherCatV1.02B3,2013-07-17 07:50:00,
2013-07-17 03:55:00,75.2,44.1,30.13,NNW,338,0.0,0.0,33,0.00,,,0.00,WeatherCatV1.02B3,2013-07-17 07:55:00,
2013-07-17 04:00:00,75.1,44.0,30.13,NNW,338,0.0,0.0,33,0.00,,,0.00,WeatherCatV1.02B3,2013-07-17 08:00:00,
2013-07-17 04:05:00,75.1,44.0,30.13,NNW,338,0.0,0.0,33,0.00,,,0.00,WeatherCatV1.02B3,2013-07-17 08:05:00,
2013-07-17 04:10:00,75.1,44.0,30.13,NNW,338,0.0,0.0,33,0.00,,,0.00,WeatherCatV1.02B3,2013-07-17 08:10:00,
2013-07-17 04:15:00,75.1,44.0,30.13,NNW,338,0.0,0.0,33,0.00,,,0.00,WeatherCatV1.02B3,2013-07-17 08:15:00,
2013-07-17 04:20:00,75.1,44.0,30.13,NNW,338,0.0,0.0,33,0.00,,,0.00,WeatherCatV1.02B3,2013-07-17 08:20:00,
2013-07-17 04:25:00,75.1,44.0,30.13,NNW,338,0.0,0.0,33,0.00,,,0.00,WeatherCatV1.02B3,2013-07-17 08:25:00,
2013-07-17 04:30:00,75.0,43.9,30.12,NNW,338,0.0,0.0,33,0.00,,,0.00,WeatherCatV1.02B3,2013-07-17 08:30:00,
2013-07-17 04:35:00,75.0,43.9,30.12,NNW,338,0.0,0.0,33,0.00,,,0.00,WeatherCatV1.02B3,2013-07-17 08:35:00,
2013-07-17 04:40:00,75.0,43.9,30.12,NNW,338,0.0,0.0,33,0.00,,,0.00,WeatherCatV1.02B3,2013-07-17 08:40:00,
2013-07-17 04:45:00,75.0,43.9,30.12,NNW,338,0.0,0.0,33,0.00,,,0.00,WeatherCatV1.02B3,2013-07-17 08:45:00,
2013-07-17 04:50:00,75.0,43.9,30.12,NNW,338,0.0,0.0,33,0.00,,,0.00,WeatherCatV1.02B3,2013-07-17 08:50:00,
2013-07-17 04:55:00,75.0,43.9,30.12,NNW,338,0.0,0.0,33,0.00,,,0.00,WeatherCatV1.02B3,2013-07-17 08:55:00,
2013-07-17 05:00:00,75.1,44.8,30.12,NNW,338,0.0,0.0,34,0.00,,,0.00,WeatherCatV1.02B3,2013-07-17 09:00:00,
2013-07-17 05:05:00,75.1,44.8,30.12,NNW,338,0.0,0.0,34,0.00,,,0.00,WeatherCatV1.02B3,2013-07-17 09:05:00,
2013-07-17 05:10:00,75.1,44.8,30.12,NNW,338,0.0,0.0,34,0.00,,,0.00,WeatherCatV1.02B3,2013-07-17 09:10:00,
2013-07-17 05:15:00,75.1,44.8,30.12,NNW,338,0.0,0.0,34,0.00,,,0.00,WeatherCatV1.02B3,2013-07-17 09:15:00,
2013-07-17 05:20:00,75.1,44.8,30.12,NNW,338,0.0,0.0,34,0.00,,,0.00,WeatherCatV1.02B3,2013-07-17 09:20:00,
2013-07-17 05:25:00,75.1,44.8,30.12,NNW,338,0.0,0.0,34,0.00,,,0.00,WeatherCatV1.02B3,2013-07-17 09:25:00,
2013-07-17 05:30:00,75.1,44.8,30.13,NNW,338,0.0,0.0,34,0.00,,,0.00,WeatherCatV1.02B3,2013-07-17 09:30:00,
2013-07-17 05:35:00,75.1,44.8,30.13,NNW,338,0.0,0.0,34,0.00,,,0.00,WeatherCatV1.02B3,2013-07-17 09:35:00,
2013-07-17 05:40:00,75.1,44.8,30.13,NNW,338,0.0,0.0,34,0.00,,,0.00,WeatherCatV1.02B3,2013-07-17 09:40:00,
2013-07-17 05:45:00,75.1,44.8,30.13,NNW,338,0.0,0.0,34,0.00,,,0.00,WeatherCatV1.02B3,2013-07-17 09:45:00,
2013-07-17 05:50:00,75.1,44.8,30.13,NNW,338,0.0,0.0,34,0.00,,,0.00,WeatherCatV1.02B3,2013-07-17 09:50:00,
2013-07-17 05:55:00,75.1,44.8,30.13,NNW,338,0.0,0.0,34,0.00,,,0.00,WeatherCatV1.02B3,2013-07-17 09:55:00,
2013-07-17 06:00:00,75.0,43.9,30.13,NNW,338,0.0,0.0,33,0.00,,,0.00,WeatherCatV1.02B3,2013-07-17 10:00:00,
2013-07-17 06:05:00,75.0,43.9,30.13,NNW,338,0.0,0.0,33,0.00,,,0.00,WeatherCatV1.02B3,2013-07-17 10:05:00,
2013-07-17 06:10:00,75.0,43.9,30.13,NNW,338,0.0,0.0,33,0.00,,,0.00,WeatherCatV1.02B3,2013-07-17 10:10:00,
2013-07-17 06:15:00,75.0,43.9,30.13,NNW,338,0.0,0.0,33,0.00,,,0.00,WeatherCatV1.02B3,2013-07-17 10:15:00,
2013-07-17 06:20:00,75.0,43.9,30.13,NNW,338,0.0,0.0,33,0.00,,,0.00,WeatherCatV1.02B3,2013-07-17 10:20:00,
2013-07-17 06:25:00,75.0,43.9,30.13,NNW,338,0.0,0.0,33,0.00,,,0.00,WeatherCatV1.02B3,2013-07-17 10:25:00,
2013-07-17 06:30:00,75.2,44.9,30.14,NNW,338,0.0,4.0,34,0.00,,,0.00,WeatherCatV1.02B3,2013-07-17 10:30:00,
2013-07-17 06:35:00,75.2,44.9,30.14,NNW,338,0.0,4.0,34,0.00,,,0.00,WeatherCatV1.02B3,2013-07-17 10:35:00,
2013-07-17 06:40:00,75.2,44.9,30.14,NNW,338,0.0,4.0,34,0.00,,,0.00,WeatherCatV1.02B3,2013-07-17 10:40:00,
2013-07-17 06:45:00,75.2,44.9,30.14,NNW,338,0.0,4.0,34,0.00,,,0.00,WeatherCatV1.02B3,2013-07-17 10:45:00,
2013-07-17 06:50:00,75.2,44.9,30.14,NNW,338,0.0,4.0,34,0.00,,,0.00,WeatherCatV1.02B3,2013-07-17 10:50:00,
2013-07-17 06:55:00,75.2,44.9,30.14,NNW,338,0.0,4.0,34,0.00,,,0.00,WeatherCatV1.02B3,2013-07-17 10:55:00,
2013-07-17 07:00:00,75.4,44.3,30.14,NNW,338,2.0,7.0,33,0.00,,,0.00,WeatherCatV1.02B3,2013-07-17 11:00:00,
2013-07-17 07:05:00,75.4,44.3,30.14,NNW,338,2.0,7.0,33,0.00,,,0.00,WeatherCatV1.02B3,2013-07-17 11:05:00,
2013-07-17 07:10:00,75.4,44.3,30.14,NNW,338,2.0,7.0,33,0.00,,,0.00,WeatherCatV1.02B3,2013-07-17 11:10:00,
2013-07-17 07:15:00,75.4,44.3,30.14,NNW,338,2.0,7.0,33,0.00,,,0.00,WeatherCatV1.02B3,2013-07-17 11:15:00,
2013-07-17 07:20:00,75.4,44.3,30.14,NNW,338,2.0,7.0,33,0.00,,,0.00,WeatherCatV1.02B3,2013-07-17 11:20:00,
2013-07-17 07:25:00,75.4,44.3,30.14,NNW,338,2.0,7.0,33,0.00,,,0.00,WeatherCatV1.02B3,2013-07-17 11:25:00,
2013-07-17 07:30:00,75.4,44.3,30.14,NNW,338,2.0,7.0,33,0.00,,,0.00,WeatherCatV1.02B3,2013-07-17 11:30:00,
2013-07-17 07:35:00,50.0,50.0,30.15,NNW,338,1.0,5.0,33,0.00,,,0.00,WeatherCatV1.02B3,2013-07-17 11:35:00,
2013-07-17 07:40:00,50.0,50.0,30.15,NNW,338,1.0,5.0,33,0.00,,,0.00,WeatherCatV1.02B3,2013-07-17 11:40:00,
2013-07-17 07:45:00,50.0,50.0,30.15,NNW,338,1.0,5.0,33,0.00,,,0.00,WeatherCatV1.02B3,2013-07-17 11:45:00,
2013-07-17 07:50:00,50.0,50.0,30.15,NNW,338,1.0,5.0,33,0.00,,,0.00,WeatherCatV1.02B3,2013-07-17 11:50:00,
2013-07-17 07:55:00,50.0,50.0,30.15,NNW,338,1.0,5.0,33,0.00,,,0.00,WeatherCatV1.02B3,2013-07-17 11:55:00,
2013-07-17 08:00:00,50.0,50.0,30.16,NNW,338,2.0,7.0,50,0.00,,,0.00,WeatherCatV1.02B3,2013-07-17 12:00:00,
2013-07-17 08:05:00,50.0,50.0,30.16,NNW,338,2.0,7.0,50,0.00,,,0.00,WeatherCatV1.02B3,2013-07-17 12:05:00,
2013-07-17 08:10:00,50.0,50.0,30.16,NNW,338,2.0,7.0,50,0.00,,,0.00,WeatherCatV1.02B3,2013-07-17 12:10:00,
2013-07-17 08:15:00,50.0,50.0,30.16,NNW,338,2.0,7.0,50,0.00,,,0.00,WeatherCatV1.02B3,2013-07-17 12:15:00,
2013-07-17 08:20:00,50.0,50.0,30.16,NNW,338,2.0,7.0,50,0.00,,,0.00,WeatherCatV1.02B3,2013-07-17 12:20:00,
2013-07-17 08:25:00,50.0,50.0,30.16,NNW,338,2.0,7.0,50,0.00,,,0.00,WeatherCatV1.02B3,2013-07-17 12:25:00,
2013-07-17 08:30:00,50.0,50.0,30.17,NNW,338,4.0,9.0,50,0.00,,,0.00,WeatherCatV1.02B3,2013-07-17 12:30:00,
2013-07-17 08:35:00,50.0,50.0,30.17,NNW,338,4.0,9.0,50,0.00,,,0.00,WeatherCatV1.02B3,2013-07-17 12:35:00,
2013-07-17 08:40:00,50.0,50.0,30.17,NNW,338,4.0,9.0,50,0.00,,,0.00,WeatherCatV1.02B3,2013-07-17 12:40:00,
2013-07-17 08:45:00,50.0,50.0,30.17,NNW,338,4.0,9.0,50,0.00,,,0.00,WeatherCatV1.02B3,2013-07-17 12:45:00,
2013-07-17 08:50:00,50.0,50.0,30.17,NNW,338,4.0,9.0,50,0.00,,,0.00,WeatherCatV1.02B3,2013-07-17 12:50:00,
2013-07-17 08:55:00,50.0,50.0,30.17,NNW,338,4.0,9.0,50,0.00,,,0.00,WeatherCatV1.02B3,2013-07-17 12:55:00,
2013-07-17 09:00:00,50.0,50.0,30.17,NNW,338,4.0,9.0,50,0.00,,,0.00,WeatherCatV1.02B3,2013-07-17 13:00:00,
2013-07-17 09:05:00,50.0,50.0,30.17,NNW,338,5.0,13.0,50,0.00,,,0.00,WeatherCatV1.02B3,2013-07-17 13:05:00,
2013-07-17 09:10:00,50.0,50.0,30.17,NNW,338,5.0,13.0,50,0.00,,,0.00,WeatherCatV1.02B3,2013-07-17 13:10:00,
2013-07-17 09:15:00,50.0,50.0,30.17,NNW,338,5.0,13.0,50,0.00,,,0.00,WeatherCatV1.02B3,2013-07-17 13:15:00,
2013-07-17 09:20:00,50.0,50.0,30.17,NNW,338,5.0,13.0,50,0.00,,,0.00,WeatherCatV1.02B3,2013-07-17 13:20:00,
2013-07-17 09:25:00,50.0,50.0,30.17,NNW,338,5.0,13.0,50,0.00,,,0.00,WeatherCatV1.02B3,2013-07-17 13:25:00,
2013-07-17 09:30:00,50.0,50.0,30.17,NNW,338,6.0,15.0,50,0.00,,,0.00,WeatherCatV1.02B3,2013-07-17 13:30:00,
2013-07-17 09:35:00,50.0,50.0,30.17,NNW,338,6.0,15.0,50,0.00,,,0.00,WeatherCatV1.02B3,2013-07-17 13:35:00,
2013-07-17 09:40:00,50.0,50.0,30.17,NNW,338,6.0,15.0,50,0.00,,,0.00,WeatherCatV1.02B3,2013-07-17 13:40:00,
2013-07-17 09:45:00,50.0,50.0,30.17,NNW,338,6.0,15.0,50,0.00,,,0.00,WeatherCatV1.02B3,2013-07-17 13:45:00,
2013-07-17 09:50:00,50.0,50.0,30.17,NNW,338,6.0,15.0,50,0.00,,,0.00,WeatherCatV1.02B3,2013-07-17 13:50:00,
2013-07-17 09:55:00,50.0,50.0,30.17,NNW,338,6.0,15.0,50,0.00,,,0.00,WeatherCatV1.02B3,2013-07-17 13:55:00,
2013-07-17 10:00:00,50.0,50.0,30.16,NNW,338,5.0,16.0,50,0.00,,,0.00,WeatherCatV1.02B3,2013-07-17 14:00:00,
2013-07-17 10:05:00,50.0,50.0,30.16,NNW,338,5.0,16.0,50,0.00,,,0.00,WeatherCatV1.02B3,2013-07-17 14:05:00,
2013-07-17 10:10:00,50.0,50.0,30.16,NNW,338,5.0,16.0,50,0.00,,,0.00,WeatherCatV1.02B3,2013-07-17 14:10:00,
2013-07-17 10:15:00,50.0,50.0,30.16,NNW,338,5.0,16.0,50,0.00,,,0.00,WeatherCatV1.02B3,2013-07-17 14:15:00,
2013-07-17 10:20:00,50.0,50.0,30.16,NNW,338,5.0,16.0,50,0.00,,,0.00,WeatherCatV1.02B3,2013-07-17 14:20:00,
2013-07-17 10:25:00,50.0,50.0,30.16,NNW,338,5.0,16.0,50,0.00,,,0.00,WeatherCatV1.02B3,2013-07-17 14:25:00,
2013-07-17 10:30:00,84.3,63.0,30.16,NNW,338,6.0,15.0,49,0.00,,,0.00,WeatherCatV1.02B3,2013-07-17 14:30:00,
2013-07-17 10:35:00,84.3,63.0,30.16,NNW,338,6.0,15.0,49,0.00,,,0.00,WeatherCatV1.02B3,2013-07-17 14:35:00,
2013-07-17 10:40:00,84.3,63.0,30.16,NNW,338,6.0,15.0,49,0.00,,,0.00,WeatherCatV1.02B3,2013-07-17 14:40:00,
2013-07-17 10:45:00,84.3,63.0,30.16,NNW,338,6.0,15.0,49,0.00,,,0.00,WeatherCatV1.02B3,2013-07-17 14:45:00,
2013-07-17 10:50:00,84.3,63.0,30.16,NNW,338,6.0,15.0,49,0.00,,,0.00,WeatherCatV1.02B3,2013-07-17 14:50:00,
2013-07-17 10:55:00,84.3,63.0,30.16,NNW,338,6.0,15.0,49,0.00,,,0.00,WeatherCatV1.02B3,2013-07-17 14:55:00,
2013-07-17 11:00:00,86.2,68.6,30.15,NNW,338,6.0,15.0,56,0.00,,,0.00,WeatherCatV1.02B3,2013-07-17 15:00:00,
2013-07-17 11:05:00,86.2,68.6,30.15,NNW,338,6.0,15.0,56,0.00,,,0.00,WeatherCatV1.02B3,2013-07-17 15:05:00,
2013-07-17 11:10:00,86.2,68.6,30.15,NNW,338,6.0,15.0,56,0.00,,,0.00,WeatherCatV1.02B3,2013-07-17 15:10:00,
2013-07-17 11:15:00,86.2,68.6,30.15,NNW,338,6.0,15.0,56,0.00,,,0.00,WeatherCatV1.02B3,2013-07-17 15:15:00,
2013-07-17 11:20:00,86.2,68.6,30.15,NNW,338,6.0,15.0,56,0.00,,,0.00,WeatherCatV1.02B3,2013-07-17 15:20:00,
2013-07-17 11:25:00,86.2,68.6,30.15,NNW,338,6.0,15.0,56,0.00,,,0.00,WeatherCatV1.02B3,2013-07-17 15:25:00,
2013-07-17 11:30:00,88.9,72.2,30.15,NNW,338,7.0,18.0,58,0.00,,,0.00,WeatherCatV1.02B3,2013-07-17 15:30:00,
2013-07-17 11:35:00,88.9,72.2,30.15,NNW,338,7.0,18.0,58,0.00,,,0.00,WeatherCatV1.02B3,2013-07-17 15:35:00,
2013-07-17 11:40:00,88.9,72.2,30.15,NNW,338,7.0,18.0,58,0.00,,,0.00,WeatherCatV1.02B3,2013-07-17 15:40:00,
2013-07-17 11:45:00,88.9,72.2,30.15,NNW,338,7.0,18.0,58,0.00,,,0.00,WeatherCatV1.02B3,2013-07-17 15:45:00,
2013-07-17 11:50:00,88.9,72.2,30.15,NNW,338,7.0,18.0,58,0.00,,,0.00,WeatherCatV1.02B3,2013-07-17 15:50:00,
2013-07-17 11:55:00,88.9,72.2,30.15,NNW,338,7.0,18.0,58,0.00,,,0.00,WeatherCatV1.02B3,2013-07-17 15:55:00,
2013-07-17 12:00:00,91.1,74.7,30.15,NNW,338,8.0,18.0,59,0.00,,,0.00,WeatherCatV1.02B3,2013-07-17 16:00:00,
2013-07-17 12:05:00,91.1,74.7,30.15,NNW,338,8.0,18.0,59,0.00,,,0.00,WeatherCatV1.02B3,2013-07-17 16:05:00,
2013-07-17 12:10:00,91.1,74.7,30.15,NNW,338,8.0,18.0,59,0.00,,,0.00,WeatherCatV1.02B3,2013-07-17 16:10:00,
2013-07-17 12:15:00,91.1,74.7,30.15,NNW,338,8.0,18.0,59,0.00,,,0.00,WeatherCatV1.02B3,2013-07-17 16:15:00,
2013-07-17 12:20:00,91.1,74.7,30.15,NNW,338,8.0,18.0,59,0.00,,,0.00,WeatherCatV1.02B3,2013-07-17 16:20:00,
2013-07-17 12:25:00,91.1,74.7,30.15,NNW,338,8.0,18.0,59,0.00,,,0.00,WeatherCatV1.02B3,2013-07-17 16:25:00,
2013-07-17 12:30:00,91.1,74.7,30.15,NNW,338,8.0,18.0,59,0.00,,,0.00,WeatherCatV1.02B3,2013-07-17 16:30:00,
2013-07-17 12:35:00,91.3,75.4,30.15,NNW,338,8.0,17.0,60,0.00,,,0.00,WeatherCatV1.02B3,2013-07-17 16:35:00,
2013-07-17 12:40:00,91.3,75.4,30.15,NNW,338,8.0,17.0,60,0.00,,,0.00,WeatherCatV1.02B3,2013-07-17 16:40:00,
2013-07-17 12:45:00,91.3,75.4,30.15,NNW,338,8.0,17.0,60,0.00,,,0.00,WeatherCatV1.02B3,2013-07-17 16:45:00,
2013-07-17 12:50:00,91.3,75.4,30.15,NNW,338,8.0,17.0,60,0.00,,,0.00,WeatherCatV1.02B3,2013-07-17 16:50:00,
2013-07-17 12:55:00,91.3,75.4,30.15,NNW,338,8.0,17.0,60,0.00,,,0.00,WeatherCatV1.02B3,2013-07-17 16:55:00,
2013-07-17 13:00:00,93.2,77.2,30.14,North,0,8.0,17.0,60,0.00,,,0.00,WeatherCatV1.02B3,2013-07-17 17:00:00,
2013-07-17 13:05:00,93.2,77.2,30.14,North,0,8.0,17.0,60,0.00,,,0.00,WeatherCatV1.02B3,2013-07-17 17:05:00,
2013-07-17 13:10:00,93.2,77.2,30.14,North,0,8.0,17.0,60,0.00,,,0.00,WeatherCatV1.02B3,2013-07-17 17:10:00,
2013-07-17 13:15:00,93.2,77.2,30.14,North,0,8.0,17.0,60,0.00,,,0.00,WeatherCatV1.02B3,2013-07-17 17:15:00,
2013-07-17 13:20:00,93.2,77.2,30.14,North,0,8.0,17.0,60,0.00,,,0.00,WeatherCatV1.02B3,2013-07-17 17:20:00,
2013-07-17 13:25:00,93.2,77.2,30.14,North,0,8.0,17.0,60,0.00,,,0.00,WeatherCatV1.02B3,2013-07-17 17:25:00,
2013-07-17 13:30:00,94.2,76.6,30.14,NNW,338,7.0,16.0,57,0.00,,,0.00,WeatherCatV1.02B3,2013-07-17 17:30:00,
2013-07-17 13:35:00,94.2,76.6,30.14,NNW,338,7.0,16.0,57,0.00,,,0.00,WeatherCatV1.02B3,2013-07-17 17:35:00,
2013-07-17 13:40:00,94.2,76.6,30.14,NNW,338,7.0,16.0,57,0.00,,,0.00,WeatherCatV1.02B3,2013-07-17 17:40:00,
2013-07-17 13:45:00,94.2,76.6,30.14,NNW,338,7.0,16.0,57,0.00,,,0.00,WeatherCatV1.02B3,2013-07-17 17:45:00,
2013-07-17 13:50:00,94.2,76.6,30.14,NNW,338,7.0,16.0,57,0.00,,,0.00,WeatherCatV1.02B3,2013-07-17 17:50:00,
2013-07-17 13:55:00,94.2,76.6,30.14,NNW,338,7.0,16.0,57,0.00,,,0.00,WeatherCatV1.02B3,2013-07-17 17:55:00,
2013-07-17 14:00:00,94.2,76.6,30.14,NNW,338,7.0,16.0,57,0.00,,,0.00,WeatherCatV1.02B3,2013-07-17 18:00:00,
2013-07-17 14:05:00,90.8,75.9,30.13,NNW,338,7.0,17.0,62,0.00,,,0.00,WeatherCatV1.02B3,2013-07-17 18:05:00,
2013-07-17 14:10:00,90.8,75.9,30.13,NNW,338,7.0,17.0,62,0.00,,,0.00,WeatherCatV1.02B3,2013-07-17 18:10:00,
2013-07-17 14:15:00,90.8,75.9,30.13,NNW,338,7.0,17.0,62,0.00,,,0.00,WeatherCatV1.02B3,2013-07-17 18:15:00,
2013-07-17 14:20:00,90.8,75.9,30.13,NNW,338,7.0,17.0,62,0.00,,,0.00,WeatherCatV1.02B3,2013-07-17 18:20:00,
2013-07-17 14:25:00,90.8,75.9,30.13,NNW,338,7.0,17.0,62,0.00,,,0.00,WeatherCatV1.02B3,2013-07-17 18:25:00,
2013-07-17 14:30:00,89.7,75.4,30.12,NNW,338,8.0,19.0,63,0.00,,,0.00,WeatherCatV1.02B3,2013-07-17 18:30:00,
2013-07-17 14:35:00,89.7,75.4,30.12,NNW,338,8.0,19.0,63,0.00,,,0.00,WeatherCatV1.02B3,2013-07-17 18:35:00,
2013-07-17 14:40:00,89.7,75.4,30.12,NNW,338,8.0,19.0,63,0.00,,,0.00,WeatherCatV1.02B3,2013-07-17 18:40:00,
2013-07-17 14:45:00,89.7,75.4,30.12,NNW,338,8.0,19.0,63,0.00,,,0.00,WeatherCatV1.02B3,2013-07-17 18:45:00,
2013-07-17 14:50:00,89.7,75.4,30.12,NNW,338,8.0,19.0,63,0.00,,,0.00,WeatherCatV1.02B3,2013-07-17 18:50:00,
2013-07-17 14:55:00,89.7,75.4,30.12,NNW,338,8.0,19.0,63,0.00,,,0.00,WeatherCatV1.02B3,2013-07-17 18:55:00,
2013-07-17 15:00:00,88.6,74.8,30.11,NNW,338,7.0,18.0,64,0.00,,,0.00,WeatherCatV1.02B3,2013-07-17 19:00:00,
2013-07-17 15:05:00,88.6,74.8,30.11,NNW,338,7.0,18.0,64,0.00,,,0.00,WeatherCatV1.02B3,2013-07-17 19:05:00,
2013-07-17 15:10:00,88.6,74.8,30.11,NNW,338,7.0,18.0,64,0.00,,,0.00,WeatherCatV1.02B3,2013-07-17 19:10:00,
2013-07-17 15:15:00,88.6,74.8,30.11,NNW,338,7.0,18.0,64,0.00,,,0.00,WeatherCatV1.02B3,2013-07-17 19:15:00,
2013-07-17 15:20:00,88.6,74.8,30.11,NNW,338,7.0,18.0,64,0.00,,,0.00,WeatherCatV1.02B3,2013-07-17 19:20:00,
2013-07-17 15:25:00,88.6,74.8,30.11,NNW,338,7.0,18.0,64,0.00,,,0.00,WeatherCatV1.02B3,2013-07-17 19:25:00,
2013-07-17 15:30:00,87.9,74.2,30.11,North,0,8.0,23.0,64,0.00,,,0.00,WeatherCatV1.02B3,2013-07-17 19:30:00,
2013-07-17 15:35:00,87.9,74.2,30.11,North,0,8.0,23.0,64,0.00,,,0.00,WeatherCatV1.02B3,2013-07-17 19:35:00,
2013-07-17 15:40:00,87.9,74.2,30.11,North,0,8.0,23.0,64,0.00,,,0.00,WeatherCatV1.02B3,2013-07-17 19:40:00,
2013-07-17 15:45:00,87.9,74.2,30.11,North,0,8.0,23.0,64,0.00,,,0.00,WeatherCatV1.02B3,2013-07-17 19:45:00,
2013-07-17 15:50:00,87.9,74.2,30.11,North,0,8.0,23.0,64,0.00,,,0.00,WeatherCatV1.02B3,2013-07-17 19:50:00,
2013-07-17 15:55:00,87.9,74.2,30.11,North,0,8.0,23.0,64,0.00,,,0.00,WeatherCatV1.02B3,2013-07-17 19:55:00,
2013-07-17 16:00:00,87.9,74.2,30.11,North,0,8.0,23.0,64,0.00,,,0.00,WeatherCatV1.02B3,2013-07-17 20:00:00,
2013-07-17 16:05:00,87.7,74.0,30.11,NNW,338,8.0,18.0,64,0.00,,,0.00,WeatherCatV1.02B3,2013-07-17 20:05:00,
2013-07-17 16:10:00,87.7,74.0,30.11,NNW,338,8.0,18.0,64,0.00,,,0.00,WeatherCatV1.02B3,2013-07-17 20:10:00,
2013-07-17 16:15:00,87.7,74.0,30.11,NNW,338,8.0,18.0,64,0.00,,,0.00,WeatherCatV1.02B3,2013-07-17 20:15:00,
2013-07-17 16:20:00,87.7,74.0,30.11,NNW,338,8.0,18.0,64,0.00,,,0.00,WeatherCatV1.02B3,2013-07-17 20:20:00,
2013-07-17 16:25:00,82.6,68.2,30.12,NNW,343,9.0,11.0,62,0.00,,,0.00,WeatherCatV1.02B3,2013-07-17 20:25:00,
2013-07-17 16:37:00,81.6,66.3,30.12,North,352,8.0,9.0,60,0.12,,,0.00,WeatherCatV1.02B3,2013-07-17 20:37:00,
2013-07-17 16:42:00,80.0,61.3,30.12,NNW,344,3.0,5.0,53,0.04,,,0.02,WeatherCatV1.02B3,2013-07-17 20:42:00,
2013-07-17 16:47:00,79.7,58.8,30.12,NNW,345,4.0,5.0,49,0.00,,,0.02,WeatherCatV1.02B3,2013-07-17 20:47:00,
2013-07-17 16:52:00,79.6,56.4,30.12,NNW,343,0.0,7.0,45,0.00,,,0.02,WeatherCatV1.02B3,2013-07-17 20:52:00,
2013-07-17 16:57:00,79.6,55.1,30.11,NNW,343,1.0,5.0,43,0.00,,,0.02,WeatherCatV1.02B3,2013-07-17 20:57:00,
2013-07-17 17:02:00,79.7,53.2,30.12,NNW,335,3.0,9.0,40,0.00,,,0.02,WeatherCatV1.02B3,2013-07-17 21:02:00,
2013-07-17 17:07:00,79.6,53.1,30.12,NNW,327,5.0,8.0,40,0.00,,,0.02,WeatherCatV1.02B3,2013-07-17 21:07:00,
2013-07-17 17:12:00,79.6,52.4,30.12,NNW,332,5.0,9.0,39,0.00,,,0.02,WeatherCatV1.02B3,2013-07-17 21:12:00,
2013-07-17 17:17:00,79.6,51.7,30.12,NNW,332,2.0,5.0,38,0.00,,,0.02,WeatherCatV1.02B3,2013-07-17 21:17:00,
2013-07-17 17:22:00,79.7,51.8,30.12,NNW,333,2.0,5.0,38,0.00,,,0.02,WeatherCatV1.02B3,2013-07-17 21:22:00,
2013-07-17 17:27:00,79.7,51.8,30.12,NNW,333,0.0,3.0,38,0.00,,,0.02,WeatherCatV1.02B3,2013-07-17 21:27:00,
2013-07-17 17:32:00,79.9,51.3,30.11,NNW,333,4.0,4.0,37,0.00,,,0.02,WeatherCatV1.02B3,2013-07-17 21:32:00,
2013-07-17 17:37:00,80.0,51.4,30.11,NW,325,4.0,4.0,37,0.00,,,0.02,WeatherCatV1.02B3,2013-07-17 21:37:00,
2013-07-17 17:42:00,80.1,51.5,30.12,NNW,330,0.0,6.0,37,0.00,,,0.02,WeatherCatV1.02B3,2013-07-17 21:42:00,
2013-07-17 17:47:00,80.3,51.6,30.12,NNW,337,5.0,12.0,37,0.00,,,0.02,WeatherCatV1.02B3,2013-07-17 21:47:00,
2013-07-17 17:52:00,80.4,51.0,30.12,NW,309,12.0,17.0,36,0.56,,,0.04,WeatherCatV1.02B3,2013-07-17 21:52:00,
2013-07-17 17:57:00,80.2,51.5,30.11,WNW,302,4.0,12.0,37,0.55,,,0.09,WeatherCatV1.02B3,2013-07-17 21:57:00,
2013-07-17 18:01:00,79.9,52.0,30.11,NW,316,6.0,12.0,38,0.13,,,0.09,WeatherCatV1.02B3,2013-07-17 22:01:00,
2013-07-17 18:06:00,79.7,51.1,30.11,NW,317,3.0,6.0,37,0.06,,,0.09,WeatherCatV1.02B3,2013-07-17 22:06:00,
2013-07-17 18:11:00,79.7,50.4,30.11,NW,317,3.0,4.0,36,0.04,,,0.09,WeatherCatV1.02B3,2013-07-17 22:11:00,
2013-07-17 18:16:00,79.7,49.6,30.11,NW,316,7.0,7.0,35,0.00,,,0.09,WeatherCatV1.02B3,2013-07-17 22:16:00,
2013-07-17 18:21:00,79.8,48.9,30.11,NNW,336,3.0,11.0,34,0.00,,,0.09,WeatherCatV1.02B3,2013-07-17 22:21:00,
2013-07-17 18:26:00,79.8,48.1,30.10,NNW,330,5.0,11.0,33,0.00,,,0.09,WeatherCatV1.02B3,2013-07-17 22:26:00,
2013-07-17 18:31:00,79.7,48.0,30.10,NNW,331,3.0,7.0,33,0.00,,,0.09,WeatherCatV1.02B3,2013-07-17 22:31:00,
2013-07-17 18:36:00,79.6,47.1,30.10,NNW,331,2.0,4.0,32,0.00,,,0.09,WeatherCatV1.02B3,2013-07-17 22:36:00,
2013-07-17 18:41:00,79.5,47.0,30.10,NNW,331,5.0,6.0,32,0.00,,,0.09,WeatherCatV1.02B3,2013-07-17 22:41:00,
2013-07-17 18:46:00,79.4,46.9,30.10,NNW,331,3.0,4.0,32,0.00,,,0.09,WeatherCatV1.02B3,2013-07-17 22:46:00,
2013-07-17 18:51:00,79.3,46.9,30.10,NNW,331,3.0,4.0,32,0.00,,,0.09,WeatherCatV1.02B3,2013-07-17 22:51:00,
2013-07-17 18:56:00,79.3,46.9,30.09,NNW,331,0.0,0.0,32,0.00,,,0.09,WeatherCatV1.02B3,2013-07-17 22:56:00,
2013-07-17 19:01:00,79.3,46.9,30.09,NNW,331,1.0,1.0,32,0.00,,,0.09,WeatherCatV1.02B3,2013-07-17 23:01:00,
2013-07-17 19:06:00,79.3,46.9,30.09,NNW,331,0.0,0.0,32,0.00,,,0.09,WeatherCatV1.02B3,2013-07-17 23:06:00,
2013-07-17 19:11:00,79.3,46.9,30.09,NNW,331,0.0,3.0,32,0.00,,,0.09,WeatherCatV1.02B3,2013-07-17 23:11:00,
2013-07-17 19:16:00,79.3,46.9,30.09,NNW,331,0.0,0.0,32,0.00,,,0.09,WeatherCatV1.02B3,2013-07-17 23:16:00,
2013-07-17 19:21:00,79.2,46.8,30.09,NNW,331,4.0,5.0,32,0.00,,,0.09,WeatherCatV1.02B3,2013-07-17 23:21:00,
2013-07-17 19:26:00,79.2,46.8,30.09,NNW,331,0.0,0.0,32,0.00,,,0.09,WeatherCatV1.02B3,2013-07-17 23:26:00,
2013-07-17 19:31:00,79.1,46.7,30.09,NNW,331,0.0,4.0,32,0.00,,,0.09,WeatherCatV1.02B3,2013-07-17 23:31:00,
2013-07-17 19:36:00,79.1,46.7,30.10,NNW,331,2.0,4.0,32,0.00,,,0.09,WeatherCatV1.02B3,2013-07-17 23:36:00,
2013-07-17 19:41:00,79.0,46.6,30.10,NNW,331,0.0,1.0,32,0.00,,,0.09,WeatherCatV1.02B3,2013-07-17 23:41:00,
2013-07-17 19:46:00,79.0,46.6,30.10,NNW,331,0.0,4.0,32,0.00,,,0.09,WeatherCatV1.02B3,2013-07-17 23:46:00,
2013-07-17 19:51:00,78.9,46.5,30.10,NNW,331,2.0,5.0,32,0.00,,,0.09,WeatherCatV1.02B3,2013-07-17 23:51:00,
2013-07-17 19:56:00,78.9,46.5,30.10,NNW,331,0.0,4.0,32,0.00,,,0.09,WeatherCatV1.02B3,2013-07-17 23:56:00,
2013-07-17 20:01:00,78.9,46.5,30.10,NNW,331,0.0,0.0,32,0.00,,,0.09,WeatherCatV1.02B3,2013-07-18 00:01:00,
2013-07-17 20:06:00,78.9,46.5,30.10,NNW,331,0.0,3.0,32,0.00,,,0.09,WeatherCatV1.02B3,2013-07-18 00:06:00,
2013-07-17 20:11:00,78.7,46.3,30.10,NNW,331,0.0,0.0,32,0.00,,,0.09,WeatherCatV1.02B3,2013-07-18 00:11:00,
2013-07-17 20:16:00,78.7,46.3,30.11,NNW,331,0.0,0.0,32,0.00,,,0.09,WeatherCatV1.02B3,2013-07-18 00:16:00,
2013-07-17 20:21:00,78.7,46.3,30.11,NNW,331,0.0,0.0,32,0.00,,,0.09,WeatherCatV1.02B3,2013-07-18 00:21:00,
2013-07-17 20:26:00,78.7,46.3,30.11,NNW,331,0.0,0.0,32,0.00,,,0.09,WeatherCatV1.02B3,2013-07-18 00:26:00,
2013-07-17 20:31:00,78.6,46.3,30.11,NNW,331,0.0,0.0,32,0.00,,,0.09,WeatherCatV1.02B3,2013-07-18 00:31:00,
2013-07-17 20:36:00,78.5,46.2,30.11,NNW,331,0.0,0.0,32,0.00,,,0.09,WeatherCatV1.02B3,2013-07-18 00:36:00,
2013-07-17 20:41:00,78.5,46.2,30.11,NNW,331,0.0,2.0,32,0.00,,,0.09,WeatherCatV1.02B3,2013-07-18 00:41:00,
2013-07-17 20:46:00,78.4,46.1,30.11,NNW,331,0.0,0.0,32,0.00,,,0.09,WeatherCatV1.02B3,2013-07-18 00:46:00,
2013-07-17 20:51:00,78.3,46.0,30.12,NNW,331,0.0,0.0,32,0.00,,,0.09,WeatherCatV1.02B3,2013-07-18 00:51:00,
2013-07-17 20:56:00,78.3,46.0,30.12,NNW,331,0.0,0.0,32,0.00,,,0.09,WeatherCatV1.02B3,2013-07-18 00:56:00,
2013-07-17 21:01:00,78.2,45.9,30.11,NNW,331,0.0,0.0,32,0.00,,,0.09,WeatherCatV1.02B3,2013-07-18 01:01:00,
2013-07-17 21:06:00,78.2,45.9,30.12,NNW,331,0.0,0.0,32,0.00,,,0.09,WeatherCatV1.02B3,2013-07-18 01:06:00,
2013-07-17 21:11:00,78.1,45.8,30.12,NNW,331,0.0,0.0,32,0.00,,,0.09,WeatherCatV1.02B3,2013-07-18 01:11:00,
2013-07-17 21:16:00,78.0,45.7,30.12,NNW,331,0.0,0.0,32,0.00,,,0.09,WeatherCatV1.02B3,2013-07-18 01:16:00,
2013-07-17 21:21:00,78.0,45.7,30.12,NNW,331,0.0,0.0,32,0.00,,,0.09,WeatherCatV1.02B3,2013-07-18 01:21:00,
2013-07-17 21:26:00,78.0,45.7,30.12,NNW,331,0.0,0.0,32,0.00,,,0.09,WeatherCatV1.02B3,2013-07-18 01:26:00,
2013-07-17 21:31:00,77.9,45.6,30.12,NNW,331,0.0,0.0,32,0.00,,,0.09,WeatherCatV1.02B3,2013-07-18 01:31:00,
2013-07-17 21:36:00,77.9,45.6,30.13,NNW,331,0.0,0.0,32,0.00,,,0.09,WeatherCatV1.02B3,2013-07-18 01:36:00,
2013-07-17 21:41:00,77.8,45.6,30.13,NNW,331,0.0,0.0,32,0.00,,,0.09,WeatherCatV1.02B3,2013-07-18 01:41:00,
2013-07-17 21:46:00,77.8,45.6,30.13,NNW,331,0.0,0.0,32,0.00,,,0.09,WeatherCatV1.02B3,2013-07-18 01:46:00,
2013-07-17 21:51:00,77.7,45.5,30.13,NNW,331,0.0,3.0,32,0.00,,,0.09,WeatherCatV1.02B3,2013-07-18 01:51:00,
2013-07-17 21:56:00,77.7,45.5,30.13,NNW,331,1.0,2.0,32,0.00,,,0.09,WeatherCatV1.02B3,2013-07-18 01:56:00,
2013-07-17 22:01:00,77.7,45.5,30.13,NNW,331,2.0,4.0,32,0.00,,,0.09,WeatherCatV1.02B3,2013-07-18 02:01:00,
2013-07-17 22:06:00,77.7,45.5,30.13,NNW,331,0.0,0.0,32,0.00,,,0.09,WeatherCatV1.02B3,2013-07-18 02:06:00,
2013-07-17 22:11:00,77.7,45.5,30.13,NNW,331,2.0,5.0,32,0.00,,,0.09,WeatherCatV1.02B3,2013-07-18 02:11:00,
2013-07-17 22:16:00,77.7,45.5,30.14,NNW,331,0.0,0.0,32,0.00,,,0.09,WeatherCatV1.02B3,2013-07-18 02:16:00,
2013-07-17 22:21:00,77.7,45.5,30.13,NNW,331,0.0,0.0,32,0.00,,,0.09,WeatherCatV1.02B3,2013-07-18 02:21:00,
2013-07-17 22:26:00,77.6,45.4,30.13,NNW,331,0.0,0.0,32,0.00,,,0.09,WeatherCatV1.02B3,2013-07-18 02:26:00,
2013-07-17 22:31:00,77.6,45.4,30.14,NNW,331,0.0,3.0,32,0.00,,,0.09,WeatherCatV1.02B3,2013-07-18 02:31:00,
2013-07-17 22:36:00,77.6,45.4,30.14,NNW,331,0.0,0.0,32,0.00,,,0.09,WeatherCatV1.02B3,2013-07-18 02:36:00,
2013-07-17 22:41:00,77.6,45.4,30.14,NNW,331,0.0,3.0,32,0.00,,,0.09,WeatherCatV1.02B3,2013-07-18 02:41:00,
2013-07-17 22:46:00,77.6,45.4,30.13,NNW,331,2.0,3.0,32,0.00,,,0.09,WeatherCatV1.02B3,2013-07-18 02:46:00,
2013-07-17 22:51:00,77.6,45.4,30.13,NNW,331,0.0,0.0,32,0.00,,,0.09,WeatherCatV1.02B3,2013-07-18 02:51:00,
2013-07-17 22:56:00,77.6,45.4,30.13,NNW,331,2.0,4.0,32,0.00,,,0.09,WeatherCatV1.02B3,2013-07-18 02:56:00,
2013-07-17 23:01:00,77.6,45.4,30.13,NNW,331,0.0,0.0,32,0.00,,,0.09,WeatherCatV1.02B3,2013-07-18 03:01:00,
2013-07-17 23:06:00,77.7,45.5,30.13,NNW,331,3.0,4.0,32,0.00,,,0.09,WeatherCatV1.02B3,2013-07-18 03:06:00,
2013-07-17 23:11:00,77.6,45.4,30.13,NNW,331,0.0,1.0,32,0.00,,,0.09,WeatherCatV1.02B3,2013-07-18 03:11:00,
2013-07-17 23:16:00,77.6,45.4,30.13,NNW,331,1.0,4.0,32,0.00,,,0.09,WeatherCatV1.02B3,2013-07-18 03:16:00,
2013-07-17 23:21:00,77.6,45.4,30.13,NNW,331,0.0,6.0,32,0.00,,,0.09,WeatherCatV1.02B3,2013-07-18 03:21:00,
2013-07-17 23:26:00,77.6,45.4,30.14,NNE,29,5.0,9.0,32,0.00,,,0.09,WeatherCatV1.02B3,2013-07-18 03:26:00,
2013-07-17 23:31:00,77.5,45.3,30.13,NNE,29,0.0,0.0,32,0.00,,,0.09,WeatherCatV1.02B3,2013-07-18 03:31:00,
2013-07-17 23:36:00,77.4,45.2,30.13,NNE,29,0.0,0.0,32,0.00,,,0.09,WeatherCatV1.02B3,2013-07-18 03:36:00,
2013-07-17 23:41:00,77.3,45.1,30.13,NNE,29,0.0,0.0,32,0.00,,,0.09,WeatherCatV1.02B3,2013-07-18 03:41:00,
2013-07-17 23:46:00,77.2,45.0,30.13,NNE,29,0.0,0.0,32,0.00,,,0.09,WeatherCatV1.02B3,2013-07-18 03:46:00,
2013-07-17 23:51:00,77.1,44.9,30.13,NNE,29,4.0,5.0,32,0.00,,,0.09,WeatherCatV1.02B3,2013-07-18 03:51:00,
2013-07-17 23:56:00,77.0,44.9,30.13,NNE,29,0.0,0.0,32,0.00,,,0.09,WeatherCatV1.02B3,2013-07-18 03:56:00,